Time,TemperatureF,DewpointF,PressureIn,WindDirection,WindDirectionDegrees,WindSpeedMPH,WindSpeedGustMPH,Humidity,HourlyPrecipIn,Conditions,Clouds,dailyrainin,SoftwareType,DateUTC
2013-09-23 00:01:00,57.0,50.0,-100.00,SSW,196,7.0,13.0,78,0.00,,,0.01,,2013-09-23 07:01:00,
2013-09-23 00:11:00,57.0,50.0,-100.00,SSW,196,7.0,13.0,78,0.00,,,0.01,,2013-09-23 07:11:00,
2013-09-23 00:42:00,57.0,50.0,-100.00,SSW,193,6.0,12.0,78,0.00,,,0.01,,2013-09-23 07:42:00,
2013-09-23 00:52:00,57.0,50.0,-100.00,SSW,193,6.0,12.0,78,0.00,,,0.01,,2013-09-23 07:52:00,
2013-09-23 01:02:00,57.0,50.0,-100.00,SSW,193,6.0,12.0,78,0.00,,,0.01,,2013-09-23 08:02:00,
2013-09-23 01:11:00,57.0,50.0,-100.00,SSW,193,6.0,12.0,78,0.00,,,0.01,,2013-09-23 08:11:00,
2013-09-23 01:42:00,57.0,49.0,-100.00,South,190,6.0,10.0,75,0.00,,,0.01,,2013-09-23 08:42:00,
2013-09-23 01:52:00,57.0,49.0,-100.00,South,190,6.0,10.0,75,0.00,,,0.01,,2013-09-23 08:52:00,
2013-09-23 02:02:00,57.0,49.0,-100.00,South,190,6.0,10.0,75,0.00,,,0.01,,2013-09-23 09:02:00,
2013-09-23 02:11:00,57.0,49.0,-100.00,South,190,6.0,10.0,75,0.00,,,0.01,,2013-09-23 09:11:00,
2013-09-23 02:43:00,57.0,49.0,-100.00,SSW,197,5.0,8.0,75,0.00,,,0.00,,2013-09-23 09:43:00,
2013-09-23 02:53:00,57.0,49.0,-100.00,SSW,197,5.0,8.0,75,0.00,,,0.00,,2013-09-23 09:53:00,
2013-09-23 03:03:00,57.0,49.0,-100.00,SSW,197,5.0,8.0,75,0.00,,,0.00,,2013-09-23 10:03:00,
2013-09-23 03:12:00,57.0,49.0,-100.00,SSW,197,5.0,8.0,75,0.00,,,0.00,,2013-09-23 10:12:00,
2013-09-23 03:42:00,56.0,49.0,-100.00,SW,224,1.0,5.0,78,0.00,,,-99.99,,2013-09-23 10:42:00,
2013-09-23 03:52:00,56.0,49.0,-100.00,SW,224,1.0,5.0,78,0.00,,,-99.99,,2013-09-23 10:52:00,
2013-09-23 04:02:00,56.0,49.0,-100.00,SW,224,1.0,5.0,78,0.00,,,-99.99,,2013-09-23 11:02:00,
2013-09-23 04:12:00,56.0,49.0,-100.00,SW,224,1.0,5.0,78,0.00,,,-99.99,,2013-09-23 11:12:00,
2013-09-23 04:42:00,55.0,49.0,-100.00,WSW,248,1.0,3.0,80,0.00,,,0.00,,2013-09-23 11:42:00,
2013-09-23 04:52:00,55.0,49.0,-100.00,WSW,248,1.0,3.0,80,0.00,,,0.00,,2013-09-23 11:52:00,
2013-09-23 05:01:00,55.0,49.0,-100.00,WSW,248,1.0,3.0,80,0.00,,,0.00,,2013-09-23 12:01:00,
2013-09-23 05:11:00,55.0,49.0,-100.00,WSW,248,1.0,3.0,80,0.00,,,0.00,,2013-09-23 12:11:00,
2013-09-23 05:42:00,55.0,49.0,-100.00,WSW,253,1.0,4.0,81,0.00,,,0.00,,2013-09-23 12:42:00,
2013-09-23 05:52:00,55.0,49.0,-100.00,WSW,253,1.0,4.0,81,0.00,,,0.00,,2013-09-23 12:52:00,
2013-09-23 06:01:00,55.0,49.0,-100.00,WSW,253,1.0,4.0,81,0.00,,,0.00,,2013-09-23 13:01:00,
2013-09-23 06:11:00,55.0,49.0,-100.00,WSW,253,1.0,4.0,81,0.00,,,0.00,,2013-09-23 13:11:00,
2013-09-23 06:42:00,55.0,50.0,-100.00,WNW,296,4.0,5.0,83,0.00,,,0.00,,2013-09-23 13:42:00,
2013-09-23 06:52:00,55.0,50.0,-100.00,WNW,296,4.0,5.0,83,0.00,,,0.00,,2013-09-23 13:52:00,
2013-09-23 07:01:00,55.0,50.0,-100.00,WNW,296,4.0,5.0,83,0.00,,,0.00,,2013-09-23 14:01:00,
2013-09-23 07:11:00,55.0,50.0,-100.00,WNW,296,4.0,5.0,83,0.00,,,0.00,,2013-09-23 14:11:00,
2013-09-23 07:43:00,54.0,49.0,-100.00,NE,45,4.0,6.0,84,0.00,,,0.00,,2013-09-23 14:43:00,
2013-09-23 07:52:00,54.0,49.0,-100.00,NE,45,4.0,6.0,84,0.00,,,0.00,,2013-09-23 14:52:00,
2013-09-23 08:02:00,54.0,49.0,-100.00,NE,45,4.0,6.0,84,0.00,,,0.00,,2013-09-23 15:02:00,
2013-09-23 08:11:00,54.0,49.0,-100.00,NE,45,4.0,6.0,84,0.00,,,0.00,,2013-09-23 15:11:00,
2013-09-23 08:43:00,59.0,49.0,-100.00,NNE,32,2.0,30.0,70,0.00,,,0.00,,2013-09-23 15:43:00,
2013-09-23 08:54:00,59.0,49.0,-100.00,NNE,32,2.0,30.0,70,0.00,,,0.00,,2013-09-23 15:54:00,
2013-09-23 09:03:00,59.0,49.0,-100.00,NNE,32,2.0,30.0,70,0.00,,,0.00,,2013-09-23 16:03:00,
2013-09-23 09:12:00,59.0,49.0,-100.00,NNE,32,2.0,30.0,70,0.00,,,0.00,,2013-09-23 16:12:00,
2013-09-23 09:43:00,64.0,51.0,-100.00,NNE,25,1.0,4.0,62,0.00,,,0.00,,2013-09-23 16:43:00,
2013-09-23 09:53:00,64.0,51.0,-100.00,NNE,25,1.0,4.0,62,0.00,,,0.00,,2013-09-23 16:53:00,
2013-09-23 10:03:00,64.0,51.0,-100.00,NNE,25,1.0,4.0,62,0.00,,,0.00,,2013-09-23 17:03:00,
2013-09-23 10:12:00,64.0,51.0,-100.00,NNE,25,1.0,4.0,62,0.00,,,0.00,,2013-09-23 17:12:00,
2013-09-23 10:42:00,65.0,51.0,-100.00,West,271,3.0,6.0,61,0.00,,,0.00,,2013-09-23 17:42:00,
2013-09-23 10:52:00,65.0,51.0,-100.00,West,271,3.0,6.0,61,0.00,,,0.00,,2013-09-23 17:52:00,
2013-09-23 11:02:00,65.0,51.0,-100.00,West,271,3.0,6.0,61,0.00,,,0.00,,2013-09-23 18:02:00,
2013-09-23 11:12:00,65.0,51.0,-100.00,West,271,3.0,6.0,61,0.00,,,0.00,,2013-09-23 18:12:00,
2013-09-23 11:42:00,70.0,52.0,-100.00,NNW,334,3.0,6.0,52,0.00,,,0.00,,2013-09-23 18:42:00,
2013-09-23 11:52:00,70.0,52.0,-100.00,NNW,334,3.0,6.0,52,0.00,,,0.00,,2013-09-23 18:52:00,
2013-09-23 12:02:00,70.0,52.0,-100.00,NNW,334,3.0,6.0,52,0.00,,,0.00,,2013-09-23 19:02:00,
2013-09-23 12:12:00,70.0,52.0,-100.00,NNW,334,3.0,6.0,52,0.00,,,0.00,,2013-09-23 19:12:00,
2013-09-23 12:42:00,73.0,51.0,-100.00,North,349,4.0,11.0,46,0.00,,,0.00,,2013-09-23 19:42:00,
2013-09-23 12:53:00,73.0,51.0,-100.00,North,349,4.0,11.0,46,0.00,,,0.00,,2013-09-23 19:53:00,
2013-09-23 13:02:00,73.0,51.0,-100.00,North,349,4.0,11.0,46,0.00,,,0.00,,2013-09-23 20:02:00,
2013-09-23 13:12:00,73.0,51.0,-100.00,North,349,4.0,11.0,46,0.00,,,0.00,,2013-09-23 20:12:00,
2013-09-23 13:42:00,77.0,48.0,-100.00,NNE,29,5.0,12.0,36,0.00,,,0.00,,2013-09-23 20:42:00,
2013-09-23 13:52:00,77.0,48.0,-100.00,NNE,29,5.0,12.0,36,0.00,,,0.00,,2013-09-23 20:52:00,
2013-09-23 14:02:00,77.0,48.0,-100.00,NNE,29,5.0,12.0,36,0.00,,,0.00,,2013-09-23 21:02:00,
2013-09-23 14:11:00,77.0,48.0,-100.00,NNE,29,5.0,12.0,36,0.00,,,0.00,,2013-09-23 21:11:00,
2013-09-23 14:44:00,78.0,48.0,-100.00,NNE,18,5.0,15.0,35,0.00,,,0.00,,2013-09-23 21:44:00,
2013-09-23 14:54:00,78.0,48.0,-100.00,NNE,18,5.0,15.0,35,0.00,,,0.00,,2013-09-23 21:54:00,
2013-09-23 15:03:00,78.0,48.0,-100.00,NNE,18,5.0,15.0,35,0.00,,,0.00,,2013-09-23 22:03:00,
2013-09-23 15:13:00,78.0,48.0,-100.00,NNE,18,5.0,15.0,35,0.00,,,0.00,,2013-09-23 22:13:00,
2013-09-23 15:43:00,81.0,49.0,-100.00,NNW,337,5.0,13.0,33,0.00,,,0.00,,2013-09-23 22:43:00,
2013-09-23 15:54:00,81.0,49.0,-100.00,NNW,337,5.0,13.0,33,0.00,,,0.00,,2013-09-23 22:54:00,
2013-09-23 16:02:00,81.0,49.0,-100.00,NNW,337,5.0,13.0,33,0.00,,,0.00,,2013-09-23 23:02:00,
2013-09-23 16:12:00,81.0,49.0,-100.00,NNW,337,5.0,13.0,33,0.00,,,0.00,,2013-09-23 23:12:00,
2013-09-23 16:42:00,77.0,51.0,-100.00,WSW,241,12.0,19.0,40,0.00,,,0.00,,2013-09-23 23:42:00,
2013-09-23 16:54:00,77.0,51.0,-100.00,WSW,241,12.0,19.0,40,0.00,,,0.00,,2013-09-23 23:54:00,
2013-09-23 17:01:00,77.0,51.0,-100.00,WSW,241,12.0,19.0,40,0.00,,,0.00,,2013-09-24 00:01:00,
2013-09-23 17:11:00,77.0,51.0,-100.00,WSW,241,12.0,19.0,40,0.00,,,0.00,,2013-09-24 00:11:00,
2013-09-23 17:43:00,75.0,53.0,-100.00,WSW,238,15.0,22.0,47,0.00,,,0.00,,2013-09-24 00:43:00,
2013-09-23 17:52:00,75.0,53.0,-100.00,WSW,238,15.0,22.0,47,0.00,,,0.00,,2013-09-24 00:52:00,
2013-09-23 18:01:00,75.0,53.0,-100.00,WSW,238,15.0,22.0,47,0.00,,,0.00,,2013-09-24 01:01:00,
2013-09-23 18:12:00,75.0,53.0,-100.00,WSW,238,15.0,22.0,47,0.00,,,0.00,,2013-09-24 01:12:00,
2013-09-23 18:43:00,71.0,55.0,-100.00,WSW,238,14.0,21.0,57,0.00,,,0.00,,2013-09-24 01:43:00,
2013-09-23 18:52:00,71.0,55.0,-100.00,WSW,238,14.0,21.0,57,0.00,,,0.00,,2013-09-24 01:52:00,
2013-09-23 19:02:00,71.0,55.0,-100.00,WSW,238,14.0,21.0,57,0.00,,,0.00,,2013-09-24 02:02:00,
2013-09-23 19:12:00,71.0,55.0,-100.00,WSW,238,14.0,21.0,57,0.00,,,0.00,,2013-09-24 02:12:00,
2013-09-23 19:42:00,66.0,55.0,-100.00,WSW,238,14.0,22.0,67,0.00,,,0.00,,2013-09-24 02:42:00,
2013-09-23 19:52:00,66.0,55.0,-100.00,WSW,238,14.0,22.0,67,0.00,,,0.00,,2013-09-24 02:52:00,
2013-09-23 20:02:00,66.0,55.0,-100.00,WSW,238,14.0,22.0,67,0.00,,,0.00,,2013-09-24 03:02:00,
2013-09-23 20:12:00,66.0,55.0,-100.00,WSW,238,14.0,22.0,67,0.00,,,0.00,,2013-09-24 03:12:00,
2013-09-23 20:45:00,65.0,55.0,-100.00,SSW,210,8.0,19.0,69,0.00,,,0.00,,2013-09-24 03:45:00,
2013-09-23 20:54:00,65.0,55.0,-100.00,SSW,210,8.0,19.0,69,0.00,,,0.00,,2013-09-24 03:54:00,
2013-09-23 21:04:00,65.0,55.0,-100.00,SSW,210,8.0,19.0,69,0.00,,,0.00,,2013-09-24 04:04:00,
2013-09-23 21:14:00,65.0,55.0,-100.00,SSW,210,8.0,19.0,69,0.00,,,0.00,,2013-09-24 04:14:00,
2013-09-23 21:44:00,65.0,53.0,-100.00,SSW,207,8.0,12.0,64,0.00,,,0.00,,2013-09-24 04:44:00,
2013-09-23 21:54:00,65.0,53.0,-100.00,SSW,207,8.0,12.0,64,0.00,,,0.00,,2013-09-24 04:54:00,
2013-09-23 22:03:00,65.0,53.0,-100.00,SSW,207,8.0,12.0,64,0.00,,,0.00,,2013-09-24 05:03:00,
2013-09-23 22:13:00,65.0,53.0,-100.00,SSW,207,8.0,12.0,64,0.00,,,0.00,,2013-09-24 05:13:00,
2013-09-23 22:43:00,63.0,53.0,-100.00,SW,215,4.0,13.0,69,0.00,,,0.00,,2013-09-24 05:43:00,
2013-09-23 22:53:00,63.0,53.0,-100.00,SW,215,4.0,13.0,69,0.00,,,0.00,,2013-09-24 05:53:00,
2013-09-23 23:02:00,63.0,53.0,-100.00,SW,215,4.0,13.0,69,0.00,,,0.00,,2013-09-24 06:02:00,
2013-09-23 23:12:00,63.0,53.0,-100.00,SW,215,4.0,13.0,69,0.00,,,0.00,,2013-09-24 06:12:00,
2013-09-23 23:42:00,63.0,53.0,-100.00,SSE,167,12.0,17.0,69,0.00,,,0.00,,2013-09-24 06:42:00,
2013-09-23 23:52:00,63.0,53.0,-100.00,SSE,167,12.0,17.0,69,0.00,,,0.00,,2013-09-24 06:52:00,